NOAA 17 DEB

Satellite information

Favourite Embed

Satellite Type and Status

DEBRISIN ORBIT

Key statistics

Satellite NOAA 17 DEB at a glance.

Uptime

8472

Days in orbit

Revolutions

≈ 14.5

Per day

Orbit

SSO

Sun Synchronous Orbit

Inclination

98.9

Latest

Satellite identification and parameters

Extended collection of information and parameters for NOAA 17 DEB.

Object identification

Identified? True

Debris? True

Object name: NOAA 17 DEB

International designator: 2002-032CD

Object number (NORAD): 48744

Object ID (CCSDS): 48744

Country: UNITED STATES OF AMERICA (US)

Current information (Y/N): Y

RCS size: SMALL

Orbital parameters

Period: 99.646 minutes

Inclination: 98.9045 deg

SMA: 7119.768 km

Apoapsis: 752.473 km

Periapsis: 730.793 km

RAAN: 245.825 deg

Eccentricy: 0.00152255

Argument of periapsis: 27.3597 deg

Mean anomaly: 332.8392 deg

Mean motion: 14.45120332 rev/day

Mean motion (dot): 0.00013885 rev/day2

B* drag term: 0.0039696108 1/REarth

Two-line elements (TLE)

Creation date: Sept. 2, 2025, 10:20 a.m.

Reference frame: TEME

Reference center: EARTH

Epoch: Sept. 2, 2025, 6:02 a.m. UTC

TLE line 0: 0 NOAA 17 DEB

TLE line 1: 1 48744U 02032CD 25245.25185380 .00013885 00000-0 39696-2 0 9994

TLE line 2: 2 48744 98.9045 245.8250 0015225 27.3597 332.8392 14.45120332231986

Live tracking on map

Real-time ground track for satellite NOAA 17 DEB.

In-orbit conjunctions

A list of the most updated potential collisions computed for object NOAA 17 DEB.

Target Orbit TCA Probability of collision Miss distance Type
FENGYUN 1C DEB SSO 2025-06-14 16:01:27 0.0002034231 98.0 (m) DEBRIS
SL-8 R/B LEO 2024-08-16 23:01:09 0.0003377809 288.0 (m) ROCKET BODY

Associated space launch

NOAA M carried weather imagers and microwave and infrared sounders, as well as a SARSAT search-and-rescue package. It had an on-orbit mass of 1475 kg.

NOAA 17 DEB was lifted into orbit during the mission ‘Titan II SLV | NOAA 17’, on board a Titan II SLV space rocket.

The launch took place on June 24, 2002, 6:23 p.m. from Space Launch Complex 4W.

For more information about the launch, click the button.

Launch to space Titan II SLV | NOAA 17
Titan II SLV | NOAA 17

Agency: N/A

Status: Launch Successful

Launch date: June 24, 2002, 6:23 p.m. UTC

Rocket: Titan II SLV

Launch pad: Space Launch Complex 4W

Location: Vandenberg SFB, CA, USA

...

Latest news about this satellite

There are no fresh news available about this satellite. Check back as we update our databases every day.


Newsletter sign-up

Weekly statistics, charts and insights to help you stay on top of the space industry.